Location: Acheville
(50.3840°N, 2.8827°E)
Time: 01:19:00
(UTC+00:00)

FENGYUN 1C DEB - Pass Details

Date: 12 February 2023
Orbit: 634 x 940 km, 98.3° (Epoch: 28 March)

Event Time Altitude Azimuth Distance (km) Brightness Sun altitude
Rises 18:40:30 0° 209° (SSW) 3,107 ? -16.4°
Reaches altitude 10° 18:43:36 10° 230° (SW) 2,140 ? -16.9°
Maximum altitude 18:46:31 16° 269° (W) 1,710 ? -17.4°
Drops below altitude 10° 18:49:23 10° 309° (NW) 2,073 ? -17.8°
Sets 18:52:20 0° 331° (NNW) 2,964 ? -18.3°
